Timestamp (UTC),Temp / °C,Chill / °C,HIndex / °C,Humid%,Dewpt / °C,Wind / ms¯¹,HiWind / ms¯¹,Winddir / °,Rain / mm,RainRate / mmhr¯¹,Pressure / hPa,InsideTemp / °C,InsideHumid%,Radiation / Wm¯²,UV
2016-06-04 00:00:00,13.1,13.1,13.1,87.0,11.0,0.4,2.7,315,0.0,0.0,1009.1,18.5,59.0,0,0
2016-06-04 00:05:00,13.1,13.1,13.1,87.0,11.0,1.3,3.1,315,0.0,0.0,1009.0,18.6,59.0,0,0
2016-06-04 00:10:00,13.2,13.2,13.2,86.0,10.9,1.8,4.5,315,0.0,0.0,1009.1,18.6,59.0,0,0
2016-06-04 00:15:00,13.2,13.2,13.2,86.0,10.9,1.8,4.5,337.5,0.0,0.0,1009.0,18.7,59.0,0,0
2016-06-04 00:20:00,13.2,13.2,13.2,86.0,10.9,2.2,3.6,315,0.0,0.0,1009.0,18.7,59.0,0,0
2016-06-04 00:25:00,13.2,13.2,13.2,86.0,10.9,1.8,4.0,337.5,0.0,0.0,1009.0,18.8,59.0,0,0
2016-06-04 00:30:00,13.2,13.2,13.2,86.0,10.9,1.8,4.0,337.5,0.0,0.0,1009.1,18.8,59.0,0,0
2016-06-04 00:35:00,13.2,13.2,13.2,86.0,10.9,1.8,4.0,337.5,0.0,0.0,1009.1,18.8,59.0,0,0
2016-06-04 00:40:00,13.2,13.2,13.2,86.0,10.9,2.2,3.6,337.5,0.0,0.0,1009.1,18.7,59.0,0,0
2016-06-04 00:45:00,13.2,13.2,13.2,86.0,10.9,2.7,6.3,315,0.0,0.0,1009.0,18.7,59.0,0,0
2016-06-04 00:50:00,13.2,13.2,13.2,86.0,10.9,2.7,5.4,337.5,0.0,0.0,1009.1,18.7,60.0,0,0
2016-06-04 00:55:00,13.1,13.1,13.1,86.0,10.8,2.2,4.5,0,0.0,0.0,1009.1,18.7,60.0,0,0
2016-06-04 01:00:00,13.1,13.1,13.1,87.0,10.9,1.8,3.6,45,0.0,0.0,1009.2,18.6,60.0,0,0
2016-06-04 01:05:00,13.0,13.0,13.0,87.0,10.9,1.8,4.5,22.5,0.0,0.0,1009.2,18.5,60.0,0,0
2016-06-04 01:10:00,12.9,12.9,12.9,87.0,10.8,3.1,4.5,0,0.0,0.0,1009.2,18.5,61.0,0,0
2016-06-04 01:15:00,12.9,12.9,12.9,87.0,10.8,2.7,5.4,337.5,0.0,0.0,1009.2,18.4,61.0,0,0
2016-06-04 01:20:00,12.8,12.8,12.8,87.0,10.7,2.2,4.5,0,0.0,0.0,1009.4,18.3,61.0,0,0
2016-06-04 01:25:00,12.8,12.8,12.8,88.0,10.8,2.2,4.5,0,0.0,0.0,1009.4,18.3,62.0,0,0
2016-06-04 01:30:00,12.7,12.7,12.7,88.0,10.8,1.8,4.0,337.5,0.0,0.0,1009.4,18.3,62.0,0,0
2016-06-04 01:35:00,12.6,12.6,12.6,88.0,10.7,1.8,3.6,0,0.0,0.0,1009.3,18.2,62.0,0,0
2016-06-04 01:40:00,12.6,12.6,12.6,88.0,10.7,1.8,4.5,337.5,0.0,0.0,1009.3,18.1,62.0,0,0
2016-06-04 01:45:00,12.6,12.6,12.6,88.0,10.6,1.8,4.0,337.5,0.0,0.0,1009.3,18.2,62.0,0,0
2016-06-04 01:50:00,12.5,12.5,12.5,89.0,10.7,1.8,4.0,45,0.0,0.0,1009.3,18.1,63.0,0,0
2016-06-04 01:55:00,12.5,12.5,12.5,89.0,10.7,1.8,4.0,337.5,0.0,0.0,1009.4,18.1,63.0,0,0
2016-06-04 02:00:00,12.5,12.5,12.5,89.0,10.7,2.2,4.0,315,0.0,0.0,1009.4,18.1,62.0,0,0
2016-06-04 02:05:00,12.5,12.5,12.5,89.0,10.7,1.8,4.0,0,0.0,0.0,1009.4,18.1,62.0,0,0
2016-06-04 02:10:00,12.4,12.4,12.4,89.0,10.7,0.9,3.1,0,0.0,0.0,1009.4,18.2,62.0,0,0
2016-06-04 02:15:00,12.4,12.4,12.4,89.0,10.7,0.9,3.6,337.5,0.0,0.0,1009.4,18.1,62.0,0,0
2016-06-04 02:20:00,12.4,12.4,12.4,89.0,10.7,0.9,2.7,315,0.0,0.0,1009.5,18.1,63.0,0,0
2016-06-04 02:25:00,12.4,12.4,12.4,90.0,10.8,0.9,2.7,22.5,0.0,0.0,1009.4,17.9,63.0,0,0
2016-06-04 02:30:00,12.4,12.4,12.4,90.0,10.8,1.8,3.6,0,0.0,0.0,1009.5,17.9,63.0,0,0
2016-06-04 02:35:00,12.4,12.4,12.4,90.0,10.8,0.9,3.1,0,0.0,0.0,1009.4,17.9,63.0,0,0
2016-06-04 02:40:00,12.4,12.4,12.4,90.0,10.8,0.9,3.1,315,0.0,0.0,1009.3,17.8,63.0,0,0
2016-06-04 02:45:00,12.4,12.4,12.4,90.0,10.8,1.3,4.0,22.5,0.0,0.0,1009.4,17.8,63.0,0,0
2016-06-04 02:50:00,12.4,12.4,12.4,90.0,10.8,0.9,3.6,0,0.0,0.0,1009.4,17.8,64.0,0,0
2016-06-04 02:55:00,12.4,12.4,12.4,90.0,10.8,1.3,3.6,0,0.0,0.0,1009.4,17.8,64.0,0,0
2016-06-04 03:00:00,12.4,12.4,12.4,90.0,10.8,1.3,4.0,0,0.0,0.0,1009.4,17.9,63.0,0,0
2016-06-04 03:05:00,12.4,12.4,12.4,90.0,10.8,1.3,4.5,0,0.0,0.0,1009.4,17.9,64.0,0,0
2016-06-04 03:10:00,12.4,12.4,12.4,90.0,10.8,2.2,4.5,337.5,0.0,0.0,1009.4,17.9,63.0,0,0
2016-06-04 03:15:00,12.4,12.4,12.4,90.0,10.8,1.8,4.0,0,0.0,0.0,1009.3,17.9,63.0,0,0
2016-06-04 03:20:00,12.4,12.4,12.4,90.0,10.8,1.3,4.0,337.5,0.0,0.0,1009.3,17.9,63.0,0,0
2016-06-04 03:25:00,12.4,12.4,12.4,90.0,10.8,2.7,4.0,292.5,0.0,0.0,1009.2,17.9,63.0,0,0
2016-06-04 03:30:00,12.4,12.4,12.4,91.0,11.0,1.8,4.5,315,0.0,0.0,1009.3,18.1,63.0,0,0
2016-06-04 03:35:00,12.4,12.4,12.4,90.0,10.8,1.3,3.1,315,0.0,0.0,1009.3,18.1,63.0,0,0
2016-06-04 03:40:00,12.4,12.4,12.4,90.0,10.8,1.3,4.9,292.5,0.0,0.0,1009.2,18.1,63.0,0,0
2016-06-04 03:45:00,12.3,12.3,12.3,90.0,10.7,0.9,3.1,337.5,0.0,0.0,1009.3,18.1,63.0,0,0
2016-06-04 03:50:00,12.3,12.3,12.3,90.0,10.7,0.9,4.0,0,0.0,0.0,1009.3,18.1,63.0,0,0
2016-06-04 03:55:00,12.3,12.3,12.3,90.0,10.7,2.2,4.0,0,0.0,0.0,1009.4,17.9,63.0,0,0
2016-06-04 04:00:00,12.3,12.3,12.3,91.0,10.9,1.8,3.6,0,0.0,0.0,1009.3,17.9,63.0,0,0
2016-06-04 04:05:00,12.3,12.3,12.3,91.0,10.9,1.8,4.5,315,0.0,0.0,1009.4,17.9,63.0,0,0
2016-06-04 04:10:00,12.3,12.3,12.3,91.0,10.9,0.9,2.7,45,0.0,0.0,1009.3,17.9,63.0,0,0
2016-06-04 04:15:00,12.3,12.3,12.3,91.0,10.9,1.3,3.6,0,0.0,0.0,1009.3,17.9,63.0,0,0
2016-06-04 04:20:00,12.2,12.2,12.2,91.0,10.8,1.8,4.5,315,0.0,0.0,1009.3,17.8,63.0,0,0
2016-06-04 04:25:00,12.2,12.2,12.2,91.0,10.8,2.2,4.9,337.5,0.0,0.0,1009.4,17.8,63.0,0,0
2016-06-04 04:30:00,12.2,12.2,12.2,91.0,10.8,2.2,4.9,315,0.0,0.0,1009.5,17.9,63.0,3,0
2016-06-04 04:35:00,12.2,12.2,12.2,91.0,10.8,1.3,3.1,337.5,0.0,0.0,1009.4,17.9,63.0,5,0
2016-06-04 04:40:00,12.2,12.2,12.2,91.0,10.8,0.9,3.1,22.5,0.0,0.0,1009.4,17.9,63.0,6,0
2016-06-04 04:45:00,12.2,12.2,12.2,91.0,10.8,2.2,4.0,0,0.0,0.0,1009.3,17.8,63.0,8,0
2016-06-04 04:50:00,12.2,12.2,12.2,91.0,10.8,1.3,3.1,0,0.0,0.0,1009.4,17.8,63.0,8,0
2016-06-04 04:55:00,12.2,12.2,12.2,91.0,10.8,1.8,3.6,0,0.0,0.0,1009.5,17.9,63.0,9,0
2016-06-04 05:00:00,12.2,12.2,12.2,91.0,10.8,1.3,3.6,0,0.0,0.0,1009.5,17.9,63.0,9,0
2016-06-04 05:05:00,12.2,12.2,12.2,91.0,10.8,1.3,3.6,292.5,0.0,0.0,1009.5,17.9,63.0,11,0
2016-06-04 05:10:00,12.3,12.3,12.3,91.0,10.9,1.8,4.0,315,0.0,0.0,1009.6,17.9,63.0,12,0
2016-06-04 05:15:00,12.2,12.2,12.2,91.0,10.8,1.3,3.1,337.5,0.0,0.0,1009.5,18.1,63.0,12,0
2016-06-04 05:20:00,12.3,12.3,12.3,91.0,10.9,1.3,4.0,337.5,0.0,0.0,1009.5,17.9,63.0,14,0
2016-06-04 05:25:00,12.3,12.3,12.3,91.0,10.9,1.8,3.6,337.5,0.0,0.0,1009.5,17.8,63.0,17,0
2016-06-04 05:30:00,12.3,12.3,12.3,91.0,10.9,1.8,3.6,0,0.0,0.0,1009.6,17.9,63.0,23,0
2016-06-04 05:35:00,12.3,12.3,12.3,91.0,10.9,1.3,4.0,0,0.0,0.0,1009.6,17.9,63.0,25,0
2016-06-04 05:40:00,12.3,12.3,12.3,91.0,10.9,1.3,3.1,337.5,0.0,0.0,1009.5,17.9,64.0,26,0
2016-06-04 05:45:00,12.3,12.3,12.3,91.0,10.9,1.3,3.1,0,0.0,0.0,1009.6,17.8,64.0,26,0
2016-06-04 05:50:00,12.4,12.4,12.4,91.0,11.0,1.8,4.0,337.5,0.0,0.0,1009.6,17.8,64.0,28,0
2016-06-04 05:55:00,12.4,12.4,12.4,91.0,11.0,2.2,4.5,337.5,0.0,0.0,1009.6,17.8,64.0,29,0
2016-06-04 06:00:00,12.4,12.4,12.4,91.0,11.0,1.8,5.8,337.5,0.0,0.0,1009.6,17.8,64.0,30,0
2016-06-04 06:05:00,12.4,12.4,12.4,91.0,11.0,0.9,3.1,337.5,0.0,0.0,1009.6,17.8,64.0,32,0
2016-06-04 06:10:00,12.4,12.4,12.4,91.0,11.0,1.3,4.0,315,0.0,0.0,1009.6,17.9,64.0,39,0
2016-06-04 06:15:00,12.4,12.4,12.4,91.0,11.0,1.3,4.0,0,0.0,0.0,1009.7,17.9,64.0,41,0
2016-06-04 06:20:00,12.4,12.4,12.4,91.0,11.0,1.3,3.6,337.5,0.0,0.0,1009.7,17.9,64.0,42,0
2016-06-04 06:25:00,12.4,12.4,12.4,91.0,11.0,0.4,3.1,315,0.0,0.0,1009.8,17.8,64.0,46,0
2016-06-04 06:30:00,12.4,12.4,12.4,91.0,11.0,2.7,4.5,337.5,0.0,0.0,1009.8,17.8,64.0,51,0
2016-06-04 06:35:00,12.4,12.4,12.4,91.0,11.0,2.7,4.9,337.5,0.0,0.0,1009.7,17.8,64.0,58,0
2016-06-04 06:40:00,12.5,12.5,12.5,91.0,11.1,1.8,4.5,337.5,0.0,0.0,1009.8,17.9,64.0,59,0
2016-06-04 06:45:00,12.6,12.6,12.6,91.0,11.1,2.2,4.5,337.5,0.0,0.0,1009.9,18.1,64.0,68,0
2016-06-04 06:50:00,12.6,12.6,12.6,91.0,11.2,2.7,4.9,315,0.0,0.0,1010.0,18.1,64.0,89,0.2
2016-06-04 06:55:00,12.7,12.7,12.7,91.0,11.2,2.7,5.4,337.5,0.0,0.0,1009.9,18.2,64.0,102,0.4
2016-06-04 07:00:00,12.7,12.7,12.7,91.0,11.3,2.2,5.4,337.5,0.0,0.0,1010.0,18.3,63.0,118,0.6
2016-06-04 07:05:00,12.8,12.8,12.8,91.0,11.3,3.1,4.9,337.5,0.0,0.0,1010.0,18.5,63.0,119,0.6
2016-06-04 07:10:00,12.8,12.8,12.8,91.0,11.4,2.7,5.4,337.5,0.0,0.0,1010.2,18.6,63.0,136,0.7
2016-06-04 07:15:00,12.9,12.9,12.9,91.0,11.5,2.2,4.9,337.5,0.0,0.0,1010.0,18.7,63.0,140,0.8
2016-06-04 07:20:00,12.9,12.9,12.9,91.0,11.5,2.7,4.5,337.5,0.0,0.0,1010.0,18.7,62.0,138,0.8
2016-06-04 07:25:00,13.0,13.0,13.0,91.0,11.6,1.8,4.0,337.5,0.0,0.0,1009.9,18.8,62.0,135,0.7
2016-06-04 07:30:00,13.1,13.1,13.1,91.0,11.6,1.8,4.0,315,0.0,0.0,1010.0,18.8,62.0,150,0.9
2016-06-04 07:35:00,13.1,13.1,13.1,91.0,11.7,2.2,5.4,0,0.0,0.0,1009.9,18.8,62.0,156,0.9
2016-06-04 07:40:00,13.2,13.2,13.2,91.0,11.7,2.7,5.4,337.5,0.0,0.0,1010.0,18.9,62.0,183,1.1
2016-06-04 07:45:00,13.2,13.2,13.2,91.0,11.8,2.2,4.0,337.5,0.0,0.0,1010.1,19.0,62.0,176,1.1
2016-06-04 07:50:00,13.3,13.3,13.3,91.0,11.8,1.8,3.6,292.5,0.0,0.0,1010.2,19.0,62.0,154,1
2016-06-04 07:55:00,13.3,13.3,13.3,90.0,11.7,0.4,3.1,45,0.0,0.0,1010.2,19.0,62.0,135,0.8
2016-06-04 08:00:00,13.4,13.4,13.4,90.0,11.8,1.3,3.1,45,0.0,0.0,1010.2,19.0,62.0,129,0.8
2016-06-04 08:05:00,13.5,13.5,13.5,90.0,11.9,0.9,2.7,315,0.0,0.0,1010.2,19.1,62.0,123,0.8
2016-06-04 08:10:00,13.6,13.6,13.6,90.0,12.0,0.4,1.8,315,0.0,0.0,1010.3,19.0,62.0,117,0.7
2016-06-04 08:15:00,13.6,13.6,13.6,90.0,12.0,2.2,6.3,337.5,0.0,0.0,1010.3,19.0,62.0,135,0.8
2016-06-04 08:20:00,13.6,13.6,13.6,90.0,11.9,3.1,5.4,337.5,0.0,0.0,1010.4,19.2,62.0,142,0.9
2016-06-04 08:25:00,13.5,13.5,13.5,89.0,11.7,3.1,4.9,337.5,0.0,0.0,1010.3,19.1,62.0,145,1
2016-06-04 08:30:00,13.6,13.6,13.6,89.0,11.8,1.8,4.5,315,0.0,0.0,1010.5,19.2,62.0,133,0.9
2016-06-04 08:35:00,13.6,13.6,13.6,89.0,11.8,2.7,4.9,0,0.0,0.0,1010.5,19.1,62.0,130,0.8
2016-06-04 08:40:00,13.6,13.6,13.6,89.0,11.8,1.8,4.0,337.5,0.0,0.0,1010.4,19.2,62.0,122,0.8
2016-06-04 08:45:00,13.6,13.6,13.6,89.0,11.8,1.8,3.1,0,0.0,0.0,1010.5,19.2,62.0,135,0.9
2016-06-04 08:50:00,13.7,13.7,13.7,89.0,11.9,1.8,3.6,315,0.0,0.0,1010.4,19.1,62.0,147,1
2016-06-04 08:55:00,13.7,13.7,13.7,89.0,11.9,2.2,4.0,0,0.0,0.0,1010.5,19.1,62.0,129,0.9
2016-06-04 09:00:00,13.7,13.7,13.7,89.0,11.9,1.8,4.0,315,0.0,0.0,1010.4,19.1,62.0,149,1
2016-06-04 09:05:00,13.7,13.7,13.7,89.0,11.9,2.2,4.0,315,0.0,0.0,1010.5,19.1,62.0,160,1.1
2016-06-04 09:10:00,13.7,13.7,13.7,89.0,11.9,2.2,4.0,0,0.0,0.0,1010.5,19.2,62.0,161,1.1
2016-06-04 09:15:00,13.8,13.8,13.8,89.0,12.0,2.2,4.5,0,0.0,0.0,1010.5,19.2,62.0,200,1.5
2016-06-04 09:20:00,13.8,13.8,13.8,89.0,12.1,2.7,4.9,315,0.0,0.0,1010.5,19.4,62.0,246,1.9
2016-06-04 09:25:00,13.9,13.9,13.9,89.0,12.1,2.7,5.4,45,0.0,0.0,1010.6,19.4,61.0,272,2.1
2016-06-04 09:30:00,14.0,14.0,14.0,88.0,12.0,2.2,4.5,315,0.0,0.0,1010.6,19.6,61.0,279,2.2
2016-06-04 09:35:00,14.1,14.1,14.1,88.0,12.1,2.2,4.0,0,0.0,0.0,1010.7,19.6,61.0,235,1.9
2016-06-04 09:40:00,14.2,14.2,14.2,88.0,12.2,2.2,4.5,337.5,0.0,0.0,1010.7,19.7,61.0,197,1.5
2016-06-04 09:45:00,14.2,14.2,14.2,88.0,12.3,1.8,4.0,0,0.0,0.0,1010.7,19.7,61.0,145,1
2016-06-04 09:50:00,14.2,14.2,14.2,87.0,12.1,2.2,4.0,0,0.0,0.0,1010.8,19.7,61.0,134,1
2016-06-04 09:55:00,14.2,14.2,14.2,87.0,12.1,2.2,3.6,22.5,0.0,0.0,1010.7,19.7,61.0,148,1.1
2016-06-04 10:00:00,14.3,14.3,14.3,87.0,12.1,1.8,3.6,0,0.0,0.0,1010.6,19.6,61.0,153,1.1
2016-06-04 10:05:00,14.3,14.3,14.3,87.0,12.2,1.8,4.0,337.5,0.0,0.0,1010.7,19.6,61.0,177,1.3
2016-06-04 10:10:00,14.3,14.3,14.3,87.0,12.2,2.2,4.5,337.5,0.0,0.0,1010.8,19.7,61.0,192,1.5
2016-06-04 10:15:00,14.4,14.4,14.4,87.0,12.3,3.1,6.3,337.5,0.0,0.0,1010.9,19.7,61.0,214,1.7
2016-06-04 10:20:00,14.4,14.4,14.4,87.0,12.3,1.3,4.0,337.5,0.0,0.0,1010.8,19.7,61.0,184,1.3
2016-06-04 10:25:00,14.4,14.4,14.4,87.0,12.3,2.2,5.8,292.5,0.0,0.0,1010.9,19.7,61.0,242,2
2016-06-04 10:30:00,14.5,14.5,14.5,87.0,12.4,2.2,4.5,22.5,0.0,0.0,1010.8,19.9,61.0,295,2.6
2016-06-04 10:35:00,14.6,14.6,14.6,87.0,12.4,2.2,4.0,0,0.0,0.0,1010.8,20.0,61.0,349,3.1
2016-06-04 10:40:00,14.6,14.6,14.6,87.0,12.5,2.7,4.5,0,0.0,0.0,1010.9,20.2,60.0,345,3
2016-06-04 10:45:00,14.7,14.7,14.7,87.0,12.5,2.7,4.9,337.5,0.0,0.0,1011.0,20.4,60.0,338,2.9
2016-06-04 10:50:00,14.8,14.8,14.8,86.0,12.5,2.2,4.0,337.5,0.0,0.0,1011.0,20.5,59.0,341,3
2016-06-04 10:55:00,14.9,14.9,14.9,86.0,12.6,2.2,4.0,0,0.0,0.0,1011.0,20.6,60.0,341,3
2016-06-04 11:00:00,15.0,15.0,15.0,86.0,12.7,2.2,4.5,0,0.0,0.0,1011.1,20.7,59.0,346,3
2016-06-04 11:05:00,15.0,15.0,15.0,86.0,12.7,1.8,3.1,22.5,0.0,0.0,1010.9,20.9,59.0,370,3.2
2016-06-04 11:10:00,15.0,15.0,15.0,86.0,12.7,3.1,5.8,0,0.0,0.0,1010.9,20.9,58.0,372,3.2
2016-06-04 11:15:00,15.1,15.1,15.1,85.0,12.6,2.2,4.0,315,0.0,0.0,1010.8,21.2,58.0,348,3
2016-06-04 11:20:00,15.1,15.1,15.1,85.0,12.6,2.7,4.5,45,0.0,0.0,1010.8,21.2,57.0,378,3.3
2016-06-04 11:25:00,15.3,15.3,15.3,85.0,12.8,1.8,4.0,0,0.0,0.0,1010.8,21.1,58.0,386,3.4
2016-06-04 11:30:00,15.4,15.4,15.4,85.0,12.9,1.8,4.5,337.5,0.0,0.0,1010.8,21.2,58.0,350,3.1
2016-06-04 11:35:00,15.5,15.5,15.5,84.0,12.8,3.6,5.4,337.5,0.0,0.0,1010.8,21.4,57.0,411,3.6
2016-06-04 11:40:00,15.6,15.6,15.6,84.0,12.9,3.6,5.8,337.5,0.0,0.0,1010.8,21.7,57.0,435,3.9
2016-06-04 11:45:00,15.7,15.7,15.7,84.0,13.0,2.2,4.5,315,0.0,0.0,1010.8,21.9,56.0,430,3.9
2016-06-04 11:50:00,15.8,15.8,15.8,83.0,12.9,2.2,4.0,337.5,0.0,0.0,1010.9,22.0,56.0,505,4.5
2016-06-04 11:55:00,15.8,15.8,15.8,84.0,13.1,2.7,5.8,22.5,0.0,0.0,1010.8,22.0,56.0,505,4.5
2016-06-04 12:00:00,16.1,16.1,16.1,83.0,13.2,2.7,5.8,315,0.0,0.0,1010.8,22.1,56.0,510,4.5
2016-06-04 12:05:00,16.3,16.3,16.3,83.0,13.4,3.1,5.4,315,0.0,0.0,1010.9,22.1,56.0,526,4.9
2016-06-04 12:10:00,16.4,16.4,16.4,82.0,13.4,2.2,5.4,45,0.0,0.0,1010.9,22.1,56.0,546,4.8
2016-06-04 12:15:00,16.6,16.6,16.6,82.0,13.5,2.7,4.0,22.5,0.0,0.0,1010.9,22.1,56.0,451,4.1
2016-06-04 12:20:00,16.8,16.8,16.8,81.0,13.5,3.1,5.4,337.5,0.0,0.0,1010.8,22.2,56.0,535,4.9
2016-06-04 12:25:00,17.2,17.2,17.2,81.0,13.9,1.8,4.0,337.5,0.0,0.0,1010.9,22.3,56.0,559,5.6
2016-06-04 12:30:00,17.8,17.8,17.8,79.0,14.1,1.8,4.0,315,0.0,0.0,1010.9,22.4,56.0,937,7
2016-06-04 12:35:00,18.0,18.0,18.0,77.0,13.9,3.1,6.3,315,0.0,0.0,1010.9,22.4,56.0,823,7.1
2016-06-04 12:40:00,18.2,18.2,18.2,76.0,13.9,3.1,5.4,315,0.0,0.0,1010.9,22.4,56.0,894,6.9
2016-06-04 12:45:00,17.9,17.9,17.9,76.0,13.6,4.0,5.8,315,0.0,0.0,1010.8,22.6,55.0,1027,6.7
2016-06-04 12:50:00,18.0,18.0,18.0,78.0,14.1,3.1,5.8,337.5,0.0,0.0,1010.7,22.4,55.0,864,6.9
2016-06-04 12:55:00,18.2,18.2,18.2,76.0,13.9,3.1,5.8,315,0.0,0.0,1010.7,22.6,55.0,565,5.5
2016-06-04 13:00:00,18.2,18.2,18.2,76.0,13.9,2.2,4.5,0,0.0,0.0,1010.8,22.4,56.0,692,6.5
2016-06-04 13:05:00,18.6,18.6,18.6,77.0,14.5,1.3,4.9,45,0.0,0.0,1010.7,22.3,56.0,881,6.4
2016-06-04 13:10:00,18.8,18.8,18.8,75.0,14.3,2.7,4.0,0,0.0,0.0,1010.7,22.3,57.0,794,6.6
2016-06-04 13:15:00,19.2,19.2,19.2,74.0,14.5,2.7,4.0,337.5,0.0,0.0,1010.6,22.3,57.0,916,6.8
2016-06-04 13:20:00,18.9,18.9,18.9,75.0,14.4,2.2,4.5,0,0.0,0.0,1010.6,22.3,57.0,496,5.1
2016-06-04 13:25:00,18.6,18.6,18.6,76.0,14.2,3.1,5.4,315,0.0,0.0,1010.6,22.3,57.0,614,5.6
2016-06-04 13:30:00,18.9,18.9,18.9,76.0,14.6,2.2,4.9,315,0.0,0.0,1010.7,22.3,57.0,762,5.7
2016-06-04 13:35:00,18.8,18.8,18.8,75.0,14.3,2.7,6.7,315,0.0,0.0,1010.7,22.4,57.0,754,5.3
2016-06-04 13:40:00,18.8,18.8,18.8,76.0,14.5,3.1,5.4,315,0.0,0.0,1010.7,22.4,57.0,772,5.6
2016-06-04 13:45:00,19.0,19.0,19.0,75.0,14.5,2.7,4.9,0,0.0,0.0,1010.8,22.4,57.0,715,5.3
2016-06-04 13:50:00,19.0,19.0,19.0,75.0,14.5,2.7,6.3,315,0.0,0.0,1010.8,22.4,57.0,782,5.5
2016-06-04 13:55:00,19.0,19.0,19.0,74.0,14.3,3.1,6.7,315,0.0,0.0,1010.8,22.4,57.0,716,4.8
2016-06-04 14:00:00,18.4,18.4,18.4,76.0,14.1,2.7,5.4,337.5,0.0,0.0,1010.9,22.4,56.0,507,4.1
2016-06-04 14:05:00,18.3,18.3,18.3,77.0,14.2,3.1,5.8,0,0.0,0.0,1010.8,22.4,57.0,539,4.2
2016-06-04 14:10:00,18.4,18.4,18.4,76.0,14.1,3.1,5.8,337.5,0.0,0.0,1010.9,22.4,57.0,721,4.9
2016-06-04 14:15:00,18.4,18.4,18.4,76.0,14.1,2.7,5.4,337.5,0.0,0.0,1010.8,22.7,56.0,705,4.8
2016-06-04 14:20:00,18.7,18.7,18.7,76.0,14.3,2.7,5.4,315,0.0,0.0,1010.9,22.8,56.0,667,4.7
2016-06-04 14:25:00,18.9,18.9,18.9,74.0,14.2,2.7,5.4,315,0.0,0.0,1010.9,22.8,56.0,722,4.6
2016-06-04 14:30:00,18.7,18.7,18.7,76.0,14.3,3.6,6.3,337.5,0.0,0.0,1010.8,22.8,56.0,696,4.3
2016-06-04 14:35:00,18.4,18.4,18.4,76.0,14.1,3.1,5.8,315,0.0,0.0,1010.9,22.9,55.0,582,4
2016-06-04 14:40:00,18.4,18.4,18.4,76.0,14.1,3.1,5.4,337.5,0.0,0.0,1010.9,23.1,55.0,624,4.3
2016-06-04 14:45:00,18.6,18.6,18.6,76.0,14.3,3.6,5.8,0,0.0,0.0,1010.8,23.2,55.0,723,4.4
2016-06-04 14:50:00,18.8,18.8,18.8,76.0,14.5,3.1,4.9,337.5,0.0,0.0,1010.8,23.2,55.0,686,4.2
2016-06-04 14:55:00,19.0,19.0,19.0,75.0,14.5,3.6,6.7,315,0.0,0.0,1011.0,23.2,55.0,573,3.8
2016-06-04 15:00:00,18.7,18.7,18.7,75.0,14.2,3.6,6.3,0,0.0,0.0,1010.8,23.1,55.0,598,3.8
2016-06-04 15:05:00,18.4,18.4,18.4,75.0,13.9,3.1,5.8,45,0.0,0.0,1010.8,22.7,55.0,399,3.2
2016-06-04 15:10:00,18.6,18.6,18.6,76.0,14.2,2.7,4.5,22.5,0.0,0.0,1010.8,22.4,56.0,442,3
2016-06-04 15:15:00,18.4,18.4,18.4,76.0,14.1,3.1,6.3,292.5,0.0,0.0,1010.8,22.3,57.0,415,3
2016-06-04 15:20:00,18.6,18.6,18.6,76.0,14.2,3.1,7.2,315,0.0,0.0,1010.8,22.3,57.0,596,3.3
2016-06-04 15:25:00,18.8,18.8,18.8,75.0,14.2,2.7,5.8,270,0.0,0.0,1010.8,22.3,57.0,581,3.2
2016-06-04 15:30:00,18.9,18.9,18.9,74.0,14.1,2.7,6.7,315,0.0,0.0,1010.7,22.3,57.0,434,2.8
2016-06-04 15:35:00,18.6,18.6,18.6,75.0,14.1,3.1,6.3,337.5,0.0,0.0,1010.8,22.4,57.0,335,2.2
2016-06-04 15:40:00,18.4,18.4,18.4,76.0,14.1,2.7,5.4,292.5,0.0,0.0,1010.7,22.4,57.0,277,1.9
2016-06-04 15:45:00,18.4,18.4,18.4,76.0,14.1,2.7,5.4,337.5,0.0,0.0,1010.7,22.4,57.0,227,1.8
2016-06-04 15:50:00,18.3,18.3,18.3,77.0,14.2,2.2,5.4,315,0.0,0.0,1010.7,22.4,57.0,225,1.8
2016-06-04 15:55:00,18.3,18.3,18.3,76.0,14.0,2.7,4.5,292.5,0.0,0.0,1010.8,22.4,57.0,336,1.9
2016-06-04 16:00:00,18.3,18.3,18.3,77.0,14.2,2.7,5.4,0,0.0,0.0,1010.6,22.6,56.0,347,1.7
2016-06-04 16:05:00,18.4,18.4,18.4,76.0,14.1,2.7,4.5,0,0.0,0.0,1010.6,22.6,56.0,251,1.3
2016-06-04 16:10:00,18.6,18.6,18.6,76.0,14.3,1.8,4.0,292.5,0.0,0.0,1010.6,22.6,57.0,238,1
2016-06-04 16:15:00,18.4,18.4,18.4,76.0,14.1,2.7,5.8,0,0.0,0.0,1010.7,22.7,56.0,218,1
2016-06-04 16:20:00,18.3,18.3,18.3,76.0,14.0,2.7,4.5,315,0.0,0.0,1010.6,22.8,56.0,230,1.1
2016-06-04 16:25:00,18.2,18.2,18.2,77.0,14.1,1.8,4.5,0,0.0,0.0,1010.7,22.8,56.0,261,1.1
2016-06-04 16:30:00,18.3,18.3,18.3,76.0,14.0,2.2,4.5,0,0.0,0.0,1010.7,22.8,56.0,284,1.1
2016-06-04 16:35:00,18.3,18.3,18.3,76.0,14.0,3.1,5.8,337.5,0.0,0.0,1010.6,22.8,56.0,259,1
2016-06-04 16:40:00,18.3,18.3,18.3,76.0,14.0,2.2,4.5,337.5,0.0,0.0,1010.7,22.9,55.0,288,1.1
2016-06-04 16:45:00,18.6,18.6,18.6,76.0,14.2,1.8,4.0,315,0.0,0.0,1010.6,22.8,55.0,314,1.1
2016-06-04 16:50:00,18.6,18.6,18.6,75.0,14.1,2.2,4.9,315,0.0,0.0,1010.6,22.8,56.0,248,0.9
2016-06-04 16:55:00,18.6,18.6,18.6,75.0,14.0,1.8,4.5,0,0.0,0.0,1010.7,22.8,55.0,222,0.8
2016-06-04 17:00:00,18.3,18.3,18.3,75.0,13.8,2.7,4.9,337.5,0.0,0.0,1010.7,22.9,55.0,233,0.9
2016-06-04 17:05:00,18.1,18.1,18.1,76.0,13.8,3.1,5.4,337.5,0.0,0.0,1010.7,22.9,55.0,232,0.8
2016-06-04 17:10:00,17.9,17.9,17.9,76.0,13.6,3.1,6.7,292.5,0.0,0.0,1010.6,22.9,55.0,214,0.8
2016-06-04 17:15:00,17.9,17.9,17.9,76.0,13.6,2.2,4.5,315,0.0,0.0,1010.7,22.8,55.0,218,0.8
2016-06-04 17:20:00,18.2,18.2,18.2,76.0,13.9,1.8,4.0,0,0.0,0.0,1010.7,22.9,55.0,325,0.8
2016-06-04 17:25:00,18.2,18.2,18.2,75.0,13.7,3.1,5.8,315,0.0,0.0,1010.7,23.1,54.0,394,0.7
2016-06-04 17:30:00,18.2,18.2,18.2,75.0,13.7,3.1,4.5,315,0.0,0.0,1010.7,23.1,54.0,282,0.3
2016-06-04 17:35:00,18.0,18.0,18.0,75.0,13.5,3.1,5.8,337.5,0.0,0.0,1010.8,23.1,53.0,196,0
2016-06-04 17:40:00,17.8,17.8,17.8,75.0,13.3,2.2,3.6,337.5,0.0,0.0,1010.7,23.1,53.0,217,0
2016-06-04 17:45:00,17.8,17.8,17.8,75.0,13.3,1.8,4.0,337.5,0.0,0.0,1010.7,22.8,54.0,233,0
2016-06-04 17:50:00,17.9,17.9,17.9,75.0,13.4,1.3,4.5,337.5,0.0,0.0,1010.6,22.8,54.0,251,0
2016-06-04 17:55:00,17.8,17.8,17.8,75.0,13.3,2.2,4.0,22.5,0.0,0.0,1010.7,22.8,54.0,218,0
2016-06-04 18:00:00,17.7,17.7,17.7,75.0,13.2,2.2,4.5,22.5,0.0,0.0,1010.8,22.6,54.0,181,0
2016-06-04 18:05:00,17.4,17.4,17.4,75.0,13.0,2.2,4.5,0,0.0,0.0,1010.9,22.6,54.0,176,0
2016-06-04 18:10:00,17.3,17.3,17.3,76.0,13.0,2.7,4.5,22.5,0.0,0.0,1010.9,22.6,54.0,209,0
2016-06-04 18:15:00,17.2,17.2,17.2,76.0,13.0,2.7,4.9,315,0.0,0.0,1011.0,22.6,54.0,157,0
2016-06-04 18:20:00,16.9,16.9,16.9,76.0,12.7,2.2,4.5,0,0.0,0.0,1011.0,22.4,53.0,120,0
2016-06-04 18:25:00,16.8,16.8,16.8,77.0,12.7,2.7,4.9,337.5,0.0,0.0,1011.1,22.4,54.0,108,0
2016-06-04 18:30:00,16.6,16.6,16.6,77.0,12.6,1.8,4.5,337.5,0.0,0.0,1011.0,22.2,54.0,102,0
2016-06-04 18:35:00,16.5,16.5,16.5,77.0,12.5,2.2,3.6,337.5,0.0,0.0,1011.1,22.0,54.0,89,0
2016-06-04 18:40:00,16.3,16.3,16.3,78.0,12.4,3.1,4.5,315,0.0,0.0,1011.1,22.0,54.0,80,0
2016-06-04 18:45:00,16.1,16.1,16.1,78.0,12.3,2.2,4.0,315,0.0,0.0,1011.1,22.1,54.0,96,0
2016-06-04 18:50:00,16.0,16.0,16.0,78.0,12.2,2.7,4.0,315,0.0,0.0,1011.2,22.1,54.0,105,0
2016-06-04 18:55:00,15.8,15.8,15.8,78.0,12.0,2.7,5.8,337.5,0.0,0.0,1011.3,21.9,53.0,94,0
2016-06-04 19:00:00,15.7,15.7,15.7,78.0,11.8,2.2,4.0,0,0.0,0.0,1011.3,21.7,53.0,74,0
2016-06-04 19:05:00,15.4,15.4,15.4,78.0,11.6,3.1,5.4,0,0.0,0.0,1011.5,21.3,54.0,68,0
2016-06-04 19:10:00,15.2,15.2,15.2,79.0,11.6,2.2,4.0,337.5,0.0,0.0,1011.5,21.2,54.0,71,0
2016-06-04 19:15:00,15.2,15.2,15.2,79.0,11.5,1.3,4.0,0,0.0,0.0,1011.5,21.2,54.0,67,0
2016-06-04 19:20:00,15.0,15.0,15.0,79.0,11.4,3.1,5.4,337.5,0.0,0.0,1011.7,21.2,54.0,59,0
2016-06-04 19:25:00,15.0,15.0,15.0,79.0,11.4,3.1,5.4,0,0.0,0.0,1011.6,20.9,54.0,52,0
2016-06-04 19:30:00,14.7,14.7,14.7,79.0,11.1,2.7,4.0,0,0.0,0.0,1011.8,20.7,55.0,44,0
2016-06-04 19:35:00,14.6,14.6,14.6,80.0,11.2,2.2,4.0,0,0.0,0.0,1011.8,20.7,54.0,38,0
2016-06-04 19:40:00,14.5,14.5,14.5,81.0,11.3,1.8,3.6,0,0.0,0.0,1011.8,20.7,55.0,33,0
2016-06-04 19:45:00,14.4,14.4,14.4,81.0,11.2,1.8,4.0,22.5,0.0,0.0,1011.9,20.6,55.0,30,0
2016-06-04 19:50:00,14.3,14.3,14.3,81.0,11.1,1.3,3.1,22.5,0.0,0.0,1012.1,20.5,55.0,26,0
2016-06-04 19:55:00,14.1,14.1,14.1,81.0,10.9,2.2,4.0,45,0.0,0.0,1012.0,20.3,55.0,22,0
2016-06-04 20:00:00,13.9,13.9,13.9,81.0,10.7,2.7,4.9,0,0.0,0.0,1012.0,20.2,54.0,19,0
2016-06-04 20:05:00,13.7,13.7,13.7,81.0,10.5,1.8,3.6,0,0.0,0.0,1012.2,20.2,54.0,16,0
2016-06-04 20:10:00,13.6,13.6,13.6,81.0,10.4,2.2,4.5,0,0.0,0.0,1012.3,20.0,54.0,13,0
2016-06-04 20:15:00,13.3,13.3,13.3,81.0,10.1,2.7,5.4,0,0.0,0.0,1012.4,19.8,54.0,11,0
2016-06-04 20:20:00,13.2,13.2,13.2,81.0,10.0,1.3,4.0,337.5,0.0,0.0,1012.5,19.7,54.0,8,0
2016-06-04 20:25:00,13.1,13.1,13.1,81.0,9.9,1.8,4.0,315,0.0,0.0,1012.6,19.7,54.0,6,0
2016-06-04 20:30:00,12.9,12.9,12.9,81.0,9.8,1.8,4.9,67.5,0.0,0.0,1012.7,19.7,54.0,3,0
2016-06-04 20:35:00,12.8,12.8,12.8,80.0,9.4,2.2,4.0,0,0.0,0.0,1012.6,19.6,53.0,0,0
2016-06-04 20:40:00,12.6,12.6,12.6,80.0,9.3,2.2,4.9,0,0.0,0.0,1012.7,19.6,53.0,0,0
2016-06-04 20:45:00,12.6,12.6,12.6,80.0,9.2,2.2,4.5,315,0.0,0.0,1012.8,19.4,53.0,0,0
2016-06-04 20:50:00,12.4,12.4,12.4,81.0,9.3,2.2,5.4,337.5,0.0,0.0,1012.9,19.3,53.0,0,0
2016-06-04 20:55:00,12.3,12.3,12.3,81.0,9.2,2.7,4.5,0,0.0,0.0,1012.9,19.1,53.0,0,0
2016-06-04 21:00:00,12.2,12.2,12.2,81.0,9.1,2.2,4.5,0,0.0,0.0,1013.0,19.0,54.0,0,0
2016-06-04 21:05:00,12.2,12.2,12.2,82.0,9.2,1.8,4.0,22.5,0.0,0.0,1013.1,18.9,54.0,0,0
2016-06-04 21:10:00,12.0,12.0,12.0,82.0,9.0,2.7,5.4,22.5,0.0,0.0,1013.2,18.9,54.0,0,0
2016-06-04 21:15:00,11.9,11.9,11.9,83.0,9.1,2.7,5.4,0,0.0,0.0,1013.1,18.8,55.0,0,0
2016-06-04 21:20:00,11.8,11.8,11.8,83.0,9.0,1.3,4.0,292.5,0.0,0.0,1013.1,18.7,55.0,0,0
2016-06-04 21:25:00,11.7,11.7,11.7,83.0,8.9,1.8,3.6,337.5,0.0,0.0,1013.3,18.6,55.0,0,0
2016-06-04 21:30:00,11.6,11.6,11.6,84.0,9.0,2.7,4.0,315,0.0,0.0,1013.2,18.6,55.0,0,0
2016-06-04 21:35:00,11.5,11.5,11.5,84.0,8.9,2.7,5.8,0,0.0,0.0,1013.4,18.6,55.0,0,0
2016-06-04 21:40:00,11.4,11.4,11.4,84.0,8.8,1.3,3.1,0,0.0,0.0,1013.2,18.4,55.0,0,0
2016-06-04 21:45:00,11.3,11.3,11.3,85.0,8.9,1.8,4.5,337.5,0.0,0.0,1013.4,18.2,56.0,0,0
2016-06-04 21:50:00,11.3,11.3,11.3,85.0,8.8,2.2,4.9,337.5,0.0,0.0,1013.3,18.2,56.0,0,0
2016-06-04 21:55:00,11.2,11.2,11.2,85.0,8.8,2.2,4.5,337.5,0.0,0.0,1013.4,18.1,56.0,0,0
2016-06-04 22:00:00,11.2,11.2,11.2,85.0,8.8,1.8,4.9,292.5,0.0,0.0,1013.4,18.2,56.0,0,0
2016-06-04 22:05:00,11.2,11.2,11.2,85.0,8.7,1.8,4.0,337.5,0.0,0.0,1013.3,18.2,56.0,0,0